2021-022F

Last updated on Thu Apr 22 2021 00:02:03 GMT+0000 (Coordinated Universal Time)

1 47937U 21022F 21111.48381112 .00001226 00000-0 86071-4 0 9998 2 47937 97.5617 14.8301 0017668 136.2143 338.7900 15.06868709 4523
UTC large
Height (km)
Speed (km/s)
/
Latitude / Longitude
Inclination (degrees)
Orbital Period (minutes)
Azimuth
Elevation
Range (km)
Doppler Factor

Next 0 passes for location: London (51.5072 / 0.1276)

Sorry there are no passes over London.